Change the Weather History Date:

Monday, May 27, 2013

  Actual Average Record
Temperature  
Mean Temperature 76 °F -  
Max Temperature 93 °F 87 °F 96 °F (2011)
Min Temperature 60 °F 57 °F 51 °F (1997)
Cooling Degree Days 12    
Growing Degree Days 26 (Base 50)    
Moisture  
Dew Point 57 °F    
Average Humidity 65    
Maximum Humidity 94    
Minimum Humidity 12    
Precipitation  
Precipitation 0.00 in - - ()
Sea Level Pressure  
Sea Level Pressure 30.02 in    
Wind  
Wind Speed 5 mph ()    
Max Wind Speed 17 mph    
Max Gust Speed -    
Visibility 6.8 miles    
Events Rain    
Averages and records for this station are not official NWS values.
T = Trace of Precipitation, MM = Missing Value Source: Averaged Metar Reports

Daily Weather History Graph

Daily Weather History Graph

Search for Another Location

Airport or City:

Trip Planner

Search our weather history database for the weather conditions in past years. The results will help you decide how hot, cold, wet, or windy it might be!

Date:

Astronomy

May. 27, 2013 Rise Set
Actual Time 7:12 AM CDT 8:28 PM CDT
Civil Twilight 6:48 AM CDT 8:52 PM CDT
Nautical Twilight 6:19 AM CDT 9:21 PM CDT
Astronomical Twilight 5:50 AM CDT 9:50 PM CDT
Moon 11:18 PM CDT (5/27) 9:47 AM CDT (5/27)
Length of Visible Light 14h 03m
Length of Day
13h 15m
Waning Gibbous, 91% of the Moon is Illuminated
May 27
Waning Gibbous
May 31
Last Quarter
Jun 8
New
Jun 16
First Quarter
Jun 23
Full

Hourly Weather History & Observations

Time (CDT) Temp. Heat Index Dew Point Humidity Pressure Visibility Wind Dir Wind Speed Gust Speed Precip Events Conditions
12:51 AM 66.2 °F - 59.0 °F 78% 29.87 in 7.0 mi NNW 10.4 mph - N/A Rain Light Rain
1:53 AM 64.4 °F - 60.8 °F 88% 30.20 in 8.0 mi East 5.8 mph - N/A   Overcast
2:15 AM 64.4 °F - 60.8 °F 88% 30.20 in 7.0 mi SE 5.8 mph - N/A Rain Light Rain
2:44 AM 62.6 °F - 59.0 °F 88% 30.19 in 8.0 mi West 5.8 mph - N/A   Overcast
3:47 AM 62.6 °F - 60.8 °F 94% 29.83 in 8.0 mi SE 5.8 mph - N/A   Overcast
4:45 AM 62.6 °F - 60.8 °F 94% 30.15 in 8.0 mi Calm Calm - N/A   Mostly Cloudy
5:01 AM 62.6 °F - 46.4 °F 55% 30.14 in 8.0 mi WNW 3.5 mph - N/A   Mostly Cloudy
5:12 AM 60.8 °F - 59.0 °F 94% 30.22 in 7.0 mi Calm Calm - N/A   Overcast
5:44 AM 62.6 °F - 60.8 °F 94% 30.15 in 8.0 mi NE 3.5 mph - N/A   Mostly Cloudy
6:46 AM 60.8 °F - 59.0 °F 94% 29.83 in 7.0 mi Calm Calm - N/A   Scattered Clouds
7:14 AM 60.8 °F - 59.0 °F 94% 30.15 in 3.0 mi Calm Calm - N/A   Scattered Clouds
7:44 AM 60.8 °F - 59.0 °F 94% 30.15 in 3.0 mi Calm Calm - N/A   Clear
8:44 AM 66.2 °F - 62.6 °F 88% 30.16 in 3.0 mi Calm Calm - N/A   Clear
9:44 AM 69.8 °F - 59.0 °F 68% 29.86 in 4.0 mi Calm Calm - N/A   Clear
10:42 AM 71.6 °F - 59.0 °F 64% 30.16 in 5.0 mi Calm Calm - N/A   Clear
11:47 AM 75.2 °F - 57.2 °F 53% 30.15 in 6.0 mi NNE 5.8 mph - N/A   Clear
12:44 PM 77.0 °F - 59.0 °F 54% 29.79 in 6.0 mi ENE 8.1 mph - N/A   Scattered Clouds
1:49 PM 80.6 °F 80.8 °F 57.2 °F 45% 30.12 in 7.0 mi NE 4.6 mph - N/A   Scattered Clouds
2:47 PM 84.2 °F 82.8 °F 53.6 °F 35% 30.10 in 7.0 mi ENE 4.6 mph - N/A   Scattered Clouds
3:13 PM 93.2 °F - 33.8 °F 12% 30.09 in 6.0 mi West 12.7 mph - N/A   Partly Cloudy
3:48 PM 86.0 °F - 51.8 °F 31% 29.69 in 7.0 mi SSW 6.9 mph - N/A   Scattered Clouds
4:49 PM 86.0 °F - 51.8 °F 31% 30.02 in 7.0 mi Calm Calm - N/A   Scattered Clouds
5:45 PM 86.0 °F - 50.0 °F 29% 29.99 in 6.0 mi South 5.8 mph - N/A   Scattered Clouds
6:43 PM 86.0 °F 90.4 °F 69.8 °F 58% 29.65 in 8.0 mi SSE 9.2 mph - N/A   Scattered Clouds
7:51 PM 80.6 °F 80.3 °F 53.6 °F 39% 29.97 in 10.0 mi SE 11.5 mph - N/A   Mostly Cloudy
8:49 PM 78.8 °F - 53.6 °F 42% 30.00 in 8.0 mi South 8.1 mph - N/A   Mostly Cloudy
9:49 PM 77.0 °F - 57.2 °F 50% 29.67 in 8.0 mi WNW 17.3 mph - N/A   Overcast
10:50 PM 73.4 °F - 57.2 °F 57% 30.05 in 8.0 mi WNW 17.3 mph - N/A   Mostly Cloudy
11:52 PM 71.6 °F - 59.0 °F 64% 30.08 in 8.0 mi West 9.2 mph - N/A   Overcast